DAL1492 KRNO-KLAX

Flight info

Callsign DAL1492
Flight time 1h 0m
Altitude 39000
Route ZEFFR9 DARBI FRA REBRG IRNMN2
Aircraft B739/M-SDE2E3FGHIRWXY/LB1

Departure

Time 2026-05-06 16:40
Airport Reno Tahoe International Airport (KRNO)

Arrival

Time 2026-05-06 17:40
Airport Los Angeles International Airport (KLAX)
Time Latitude Longitude Altitude Speed Heading
2026-05-06 16:13 39.50536 -119.77270 4410 ft 0 kts 219°
2026-05-06 16:30 39.50536 -119.77269 4410 ft 2 kts 219°
2026-05-06 16:30 39.50549 -119.77256 4412 ft 4 kts 215°
2026-05-06 16:30 39.50575 -119.77246 4410 ft 4 kts 173°
2026-05-06 16:30 39.50593 -119.77256 4410 ft 4 kts 101°
2026-05-06 16:31 39.50592 -119.77290 4410 ft 4 kts 81°
2026-05-06 16:31 39.50590 -119.77308 4410 ft 0 kts 90°
2026-05-06 16:35 39.50590 -119.77297 4410 ft 4 kts 90°
2026-05-06 16:35 39.50589 -119.77229 4410 ft 10 kts 90°
2026-05-06 16:35 39.50591 -119.77139 4410 ft 10 kts 87°
2026-05-06 16:36 39.50619 -119.77071 4409 ft 10 kts
2026-05-06 16:36 39.50693 -119.77066 4410 ft 13 kts
2026-05-06 16:36 39.50801 -119.77069 4409 ft 17 kts 356°
2026-05-06 16:36 39.50918 -119.77068 4410 ft 16 kts
2026-05-06 16:37 39.51030 -119.77066 4411 ft 16 kts 360°
2026-05-06 16:37 39.51138 -119.77067 4411 ft 15 kts 359°
2026-05-06 16:37 39.51259 -119.77067 4410 ft 20 kts 359°
2026-05-06 16:37 39.51371 -119.77059 4410 ft 11 kts 31°
2026-05-06 16:38 39.51377 -119.76968 4409 ft 10 kts 93°
2026-05-06 16:38 39.51349 -119.76922 4409 ft 6 kts 181°
2026-05-06 16:38 39.51336 -119.76922 4410 ft 0 kts 180°
2026-05-06 16:39 39.51333 -119.76922 4410 ft 2 kts 180°
2026-05-06 16:39 39.51175 -119.76923 4413 ft 59 kts 180°
2026-05-06 16:39 39.50492 -119.76925 4408 ft 134 kts 180°
2026-05-06 16:39 39.49353 -119.76937 4459 ft 187 kts 179°
2026-05-06 16:40 39.48006 -119.76927 5236 ft 196 kts 179°
2026-05-06 16:40 39.46648 -119.76921 6143 ft 192 kts 180°
2026-05-06 16:40 39.45255 -119.76926 6736 ft 209 kts 181°
2026-05-06 16:40 39.43701 -119.76935 6913 ft 236 kts 180°
2026-05-06 16:41 39.41971 -119.76939 7172 ft 258 kts 180°
2026-05-06 16:41 39.40083 -119.76945 7420 ft 282 kts 180°
2026-05-06 16:41 39.38087 -119.76951 8152 ft 289 kts 180°
2026-05-06 16:41 39.36062 -119.76958 9030 ft 294 kts 180°
2026-05-06 16:42 39.34025 -119.76964 9865 ft 299 kts 180°
2026-05-06 16:42 39.31916 -119.76970 10502 ft 312 kts 179°
2026-05-06 16:42 39.29643 -119.76919 10735 ft 337 kts 178°
2026-05-06 16:42 39.27251 -119.76824 11315 ft 348 kts 177°
2026-05-06 16:43 39.24813 -119.76720 12046 ft 353 kts 177°
2026-05-06 16:43 39.22333 -119.76616 12805 ft 359 kts 177°
2026-05-06 16:43 39.19819 -119.76514 13495 ft 365 kts 177°
2026-05-06 16:43 39.17265 -119.76414 14196 ft 370 kts 176°
2026-05-06 16:44 39.14671 -119.76313 14866 ft 374 kts 176°
2026-05-06 16:44 39.12057 -119.76214 15567 ft 378 kts 176°
2026-05-06 16:44 39.09413 -119.76115 16261 ft 381 kts 176°
2026-05-06 16:44 39.06770 -119.76016 16915 ft 385 kts 176°
2026-05-06 16:45 39.04070 -119.75914 17568 ft 390 kts 176°
2026-05-06 16:45 39.01342 -119.75812 18236 ft 394 kts 176°
2026-05-06 16:45 38.98618 -119.75710 18832 ft 399 kts 176°
2026-05-06 16:45 38.95833 -119.75606 19421 ft 402 kts 176°
2026-05-06 16:46 38.93023 -119.75502 20033 ft 405 kts 176°
2026-05-06 16:46 38.90199 -119.75398 20628 ft 408 kts 176°
2026-05-06 16:46 38.87339 -119.75294 21205 ft 412 kts 176°
2026-05-06 16:46 38.84470 -119.75188 21786 ft 415 kts 177°
2026-05-06 16:47 38.81566 -119.75082 22359 ft 419 kts 177°
2026-05-06 16:47 38.78639 -119.74974 22922 ft 422 kts 177°
2026-05-06 16:47 38.75680 -119.74866 23515 ft 426 kts 177°
2026-05-06 16:47 38.72701 -119.74758 24011 ft 430 kts 177°
2026-05-06 16:48 38.69704 -119.74648 24493 ft 433 kts 177°
2026-05-06 16:48 38.66722 -119.74538 24940 ft 436 kts 177°
2026-05-06 16:48 38.63677 -119.74428 25408 ft 439 kts 177°
2026-05-06 16:48 38.60614 -119.74317 25877 ft 442 kts 177°
2026-05-06 16:49 38.57526 -119.74204 26349 ft 445 kts 177°
2026-05-06 16:49 38.54425 -119.74090 26800 ft 448 kts 177°
2026-05-06 16:49 38.51291 -119.73976 27231 ft 451 kts 177°
2026-05-06 16:49 38.48140 -119.73862 27661 ft 454 kts 177°
2026-05-06 16:50 38.45001 -119.73748 28107 ft 457 kts 177°
2026-05-06 16:50 38.41771 -119.73629 28522 ft 460 kts 177°
2026-05-06 16:50 38.38592 -119.73514 28919 ft 464 kts 177°
2026-05-06 16:50 38.35353 -119.73397 29321 ft 467 kts 177°
2026-05-06 16:51 38.32087 -119.73279 29747 ft 470 kts 177°
2026-05-06 16:51 38.28799 -119.73139 30144 ft 473 kts 175°
2026-05-06 16:51 38.25498 -119.72846 30494 ft 475 kts 173°
2026-05-06 16:51 38.22194 -119.72453 30825 ft 478 kts 172°
2026-05-06 16:52 38.18914 -119.72028 31119 ft 481 kts 172°
2026-05-06 16:52 38.15570 -119.71593 31423 ft 484 kts 172°
2026-05-06 16:52 38.12215 -119.71169 31721 ft 486 kts 172°
2026-05-06 16:52 38.08841 -119.70756 32029 ft 488 kts 172°
2026-05-06 16:53 38.05443 -119.70354 32325 ft 490 kts 173°
2026-05-06 16:53 38.02051 -119.69960 32724 ft 489 kts 173°
2026-05-06 16:53 37.98661 -119.69571 33166 ft 488 kts 172°
2026-05-06 16:53 37.95284 -119.69184 33560 ft 487 kts 172°
2026-05-06 16:54 37.91906 -119.68796 33864 ft 487 kts 172°
2026-05-06 16:54 37.88517 -119.68406 34199 ft 488 kts 172°
2026-05-06 16:54 37.85141 -119.68018 34520 ft 487 kts 172°
2026-05-06 16:54 37.81766 -119.67630 34850 ft 486 kts 172°
2026-05-06 16:55 37.78398 -119.67243 35168 ft 485 kts 172°
2026-05-06 16:55 37.75036 -119.66857 35478 ft 485 kts 172°
2026-05-06 16:55 37.71675 -119.66471 35730 ft 485 kts 172°
2026-05-06 16:55 37.68307 -119.66085 36020 ft 485 kts 172°
2026-05-06 16:56 37.64950 -119.65700 36299 ft 485 kts 172°
2026-05-06 16:56 37.61585 -119.65315 36570 ft 484 kts 172°
2026-05-06 16:56 37.58276 -119.64936 36869 ft 483 kts 172°
2026-05-06 16:56 37.54925 -119.64554 37119 ft 484 kts 172°
2026-05-06 16:57 37.51569 -119.64172 37352 ft 484 kts 172°
2026-05-06 16:57 37.48213 -119.63789 37586 ft 484 kts 172°
2026-05-06 16:57 37.44857 -119.63406 37841 ft 484 kts 172°
2026-05-06 16:57 37.41505 -119.63025 38091 ft 483 kts 172°
2026-05-06 16:58 37.38145 -119.62643 38366 ft 482 kts 171°
2026-05-06 16:58 37.34797 -119.62263 38603 ft 482 kts 171°
2026-05-06 16:58 37.31452 -119.61883 38820 ft 482 kts 171°
2026-05-06 16:58 37.28115 -119.61504 38996 ft 482 kts 172°
2026-05-06 16:59 37.24822 -119.61131 39180 ft 481 kts 172°
2026-05-06 16:59 37.18128 -119.60373 39198 ft 482 kts 171°
2026-05-06 17:00 37.11456 -119.59621 39182 ft 479 kts 172°
2026-05-06 17:00 37.04795 -119.59399 39191 ft 478 kts 178°
2026-05-06 17:01 36.98143 -119.59614 39187 ft 477 kts 179°
2026-05-06 17:01 36.91519 -119.59822 39194 ft 476 kts 178°
2026-05-06 17:02 36.84935 -119.59966 39194 ft 476 kts 178°
2026-05-06 17:02 36.78300 -119.60084 39198 ft 477 kts 178°
2026-05-06 17:03 36.71635 -119.60198 39203 ft 479 kts 178°
2026-05-06 17:03 36.64936 -119.60316 39199 ft 482 kts 178°
2026-05-06 17:04 36.58219 -119.60435 39196 ft 484 kts 178°
2026-05-06 17:04 36.51460 -119.60556 39204 ft 486 kts 178°
2026-05-06 17:05 36.44689 -119.60677 39205 ft 487 kts 178°
2026-05-06 17:05 36.37959 -119.60797 39206 ft 487 kts 178°
2026-05-06 17:06 36.31177 -119.60917 39202 ft 486 kts 177°
2026-05-06 17:06 36.24408 -119.61037 39200 ft 485 kts 177°
2026-05-06 17:07 36.17658 -119.61156 39199 ft 484 kts 177°
2026-05-06 17:07 36.10923 -119.61275 39199 ft 483 kts 177°
2026-05-06 17:08 36.04209 -119.61393 39188 ft 482 kts 177°
2026-05-06 17:08 35.97501 -119.61791 39192 ft 485 kts 187°
2026-05-06 17:09 35.90987 -119.64020 39201 ft 486 kts 196°
2026-05-06 17:09 35.84551 -119.66559 39196 ft 486 kts 195°
2026-05-06 17:10 35.78097 -119.69013 39186 ft 485 kts 195°
2026-05-06 17:10 35.71680 -119.71405 39205 ft 485 kts 195°
2026-05-06 17:11 35.65200 -119.73742 39206 ft 483 kts 191°
2026-05-06 17:11 35.58614 -119.75370 39210 ft 482 kts 188°
2026-05-06 17:11 35.55306 -119.76107 39012 ft 486 kts 188°
2026-05-06 17:12 35.51941 -119.76870 38361 ft 493 kts 188°
2026-05-06 17:12 35.48585 -119.77657 37811 ft 489 kts 188°
2026-05-06 17:12 35.45260 -119.78459 37359 ft 483 kts 188°
2026-05-06 17:12 35.42014 -119.79249 36884 ft 479 kts 188°
2026-05-06 17:13 35.38755 -119.80042 36424 ft 474 kts 188°
2026-05-06 17:13 35.35527 -119.80823 35965 ft 470 kts 188°
2026-05-06 17:13 35.32319 -119.81479 35485 ft 463 kts 179°
2026-05-06 17:13 35.29175 -119.81161 35013 ft 448 kts 160°
2026-05-06 17:14 35.27231 -119.80408 34767 ft 438 kts 151°
2026-05-06 17:14 35.24612 -119.78643 34323 ft 423 kts 137°
2026-05-06 17:14 35.22292 -119.76452 33864 ft 418 kts 135°
2026-05-06 17:14 35.20019 -119.74264 33367 ft 415 kts 135°
2026-05-06 17:15 35.17754 -119.72092 32907 ft 412 kts 136°
2026-05-06 17:15 35.15501 -119.69952 32468 ft 409 kts 136°
2026-05-06 17:15 35.13255 -119.67837 32017 ft 406 kts 136°
2026-05-06 17:15 35.11027 -119.65752 31589 ft 403 kts 136°
2026-05-06 17:16 35.08806 -119.63682 31164 ft 400 kts 136°
2026-05-06 17:16 35.06595 -119.61624 30730 ft 398 kts 136°
2026-05-06 17:16 35.04398 -119.59581 30322 ft 396 kts 136°
2026-05-06 17:16 35.02210 -119.57548 29860 ft 394 kts 136°
2026-05-06 17:17 35.00041 -119.55533 29362 ft 392 kts 137°
2026-05-06 17:17 34.97873 -119.53521 28938 ft 388 kts 136°
2026-05-06 17:17 34.95735 -119.51538 28499 ft 385 kts 136°
2026-05-06 17:17 34.93610 -119.49568 28074 ft 382 kts 136°
2026-05-06 17:18 34.91508 -119.47622 27659 ft 379 kts 136°
2026-05-06 17:18 34.89394 -119.45700 27227 ft 377 kts 137°
2026-05-06 17:18 34.87286 -119.43815 26813 ft 375 kts 137°
2026-05-06 17:18 34.85178 -119.41939 26387 ft 373 kts 138°
2026-05-06 17:19 34.83114 -119.40099 25985 ft 371 kts 138°
2026-05-06 17:19 34.81031 -119.38240 25593 ft 370 kts 137°
2026-05-06 17:19 34.78962 -119.36391 25188 ft 368 kts 137°
2026-05-06 17:19 34.76900 -119.34549 24785 ft 367 kts 138°
2026-05-06 17:20 34.74851 -119.32720 24367 ft 366 kts 138°
2026-05-06 17:20 34.72781 -119.30897 23936 ft 367 kts 139°
2026-05-06 17:20 34.70707 -119.29087 23479 ft 366 kts 139°
2026-05-06 17:20 34.68638 -119.27285 23037 ft 365 kts 139°
2026-05-06 17:21 34.66581 -119.25492 22637 ft 363 kts 139°
2026-05-06 17:21 34.64533 -119.23707 22222 ft 361 kts 139°
2026-05-06 17:21 34.62515 -119.21962 21805 ft 359 kts 139°
2026-05-06 17:21 34.60484 -119.20214 21390 ft 357 kts 139°
2026-05-06 17:22 34.58464 -119.18475 21017 ft 354 kts 139°
2026-05-06 17:22 34.56464 -119.16755 20622 ft 352 kts 139°
2026-05-06 17:22 34.54487 -119.15023 20235 ft 350 kts 138°
2026-05-06 17:22 34.52523 -119.13277 19819 ft 348 kts 138°
2026-05-06 17:23 34.50576 -119.11539 19446 ft 346 kts 138°
2026-05-06 17:23 34.48632 -119.09822 19052 ft 344 kts 139°
2026-05-06 17:23 34.46705 -119.08118 18658 ft 343 kts 139°
2026-05-06 17:23 34.44780 -119.06428 18290 ft 340 kts 139°
2026-05-06 17:24 34.42873 -119.04749 17862 ft 338 kts 139°
2026-05-06 17:24 34.40966 -119.03092 17485 ft 336 kts 140°
2026-05-06 17:24 34.39073 -119.01452 17107 ft 333 kts 139°
2026-05-06 17:24 34.37193 -118.99828 16753 ft 331 kts 140°
2026-05-06 17:25 34.35322 -118.98210 16312 ft 332 kts 140°
2026-05-06 17:25 34.33446 -118.96568 15910 ft 332 kts 139°
2026-05-06 17:25 34.31601 -118.94895 15543 ft 331 kts 138°
2026-05-06 17:25 34.29786 -118.93238 15163 ft 330 kts 139°
2026-05-06 17:26 34.27956 -118.91573 14791 ft 329 kts 139°
2026-05-06 17:26 34.26128 -118.89914 14445 ft 327 kts 139°
2026-05-06 17:26 34.24310 -118.88256 14041 ft 327 kts 139°
2026-05-06 17:26 34.22497 -118.86588 13652 ft 326 kts 139°
2026-05-06 17:27 34.20701 -118.84935 13256 ft 324 kts 139°
2026-05-06 17:27 34.18910 -118.83290 12881 ft 322 kts 139°
2026-05-06 17:27 34.17135 -118.81663 12521 ft 319 kts 139°
2026-05-06 17:27 34.15417 -118.79982 12160 ft 315 kts 135°
2026-05-06 17:28 34.13793 -118.78218 11816 ft 313 kts 133°
2026-05-06 17:28 34.12198 -118.76452 11459 ft 310 kts 134°
2026-05-06 17:28 34.10611 -118.74695 11109 ft 309 kts 134°
2026-05-06 17:28 34.09046 -118.72978 10780 ft 308 kts 134°
2026-05-06 17:29 34.07442 -118.71228 10435 ft 307 kts 134°
2026-05-06 17:29 34.05875 -118.69526 10119 ft 305 kts 134°
2026-05-06 17:29 34.04321 -118.67841 9915 ft 298 kts 133°
2026-05-06 17:29 34.03120 -118.65920 9722 ft 282 kts 110°
2026-05-06 17:30 34.02672 -118.63645 9291 ft 278 kts 94°
2026-05-06 17:30 34.02451 -118.61322 8892 ft 278 kts 92°
2026-05-06 17:30 34.02249 -118.59003 8555 ft 277 kts 93°
2026-05-06 17:30 34.02042 -118.56699 8224 ft 276 kts 93°
2026-05-06 17:31 34.01832 -118.54398 7929 ft 274 kts 93°
2026-05-06 17:31 34.01623 -118.52152 7803 ft 265 kts 93°
2026-05-06 17:31 34.01418 -118.49981 7679 ft 257 kts 93°
2026-05-06 17:31 34.01221 -118.47897 7562 ft 250 kts 93°
2026-05-06 17:32 34.01039 -118.45845 7419 ft 242 kts 89°
2026-05-06 17:32 34.01260 -118.43876 7164 ft 235 kts 72°
2026-05-06 17:32 34.01639 -118.41960 6896 ft 235 kts 75°
2026-05-06 17:32 34.01987 -118.40028 6629 ft 236 kts 75°
2026-05-06 17:33 34.02325 -118.38092 6345 ft 237 kts 75°
2026-05-06 17:33 34.02665 -118.36136 6078 ft 237 kts 76°
2026-05-06 17:33 34.02920 -118.34202 6007 ft 232 kts 79°
2026-05-06 17:33 34.03103 -118.32289 6003 ft 228 kts 83°
2026-05-06 17:34 34.03220 -118.30377 6007 ft 229 kts 84°
2026-05-06 17:34 34.03326 -118.28456 5762 ft 230 kts 82°
2026-05-06 17:34 34.03424 -118.26571 5455 ft 221 kts 83°
2026-05-06 17:34 34.03513 -118.24757 5160 ft 212 kts 83°
2026-05-06 17:35 34.03610 -118.23027 4897 ft 201 kts 84°
2026-05-06 17:35 34.03280 -118.21396 4379 ft 205 kts 127°
2026-05-06 17:35 34.02117 -118.20525 4024 ft 197 kts 171°
2026-05-06 17:36 33.99466 -118.20569 3318 ft 189 kts 187°
2026-05-06 17:36 33.98329 -118.21192 2978 ft 173 kts 238°
2026-05-06 17:36 33.97923 -118.22493 3025 ft 170 kts 254°
2026-05-06 17:36 33.97557 -118.23844 3018 ft 169 kts 252°
2026-05-06 17:37 33.97156 -118.25196 3021 ft 173 kts 251°
2026-05-06 17:37 33.96725 -118.26578 2779 ft 181 kts 250°
2026-05-06 17:37 33.96440 -118.28024 2381 ft 173 kts 262°
2026-05-06 17:37 33.96301 -118.29418 2025 ft 165 kts 262°
2026-05-06 17:38 33.96171 -118.30753 1780 ft 159 kts 262°
2026-05-06 17:38 33.96043 -118.32053 1495 ft 152 kts 262°
2026-05-06 17:38 33.95919 -118.33275 1300 ft 141 kts 261°
2026-05-06 17:38 33.95796 -118.34466 1111 ft 145 kts 261°
2026-05-06 17:39 33.95675 -118.35642 900 ft 143 kts 261°
2026-05-06 17:39 33.95555 -118.36814 696 ft 140 kts 262°
2026-05-06 17:39 33.95435 -118.37974 553 ft 141 kts 263°
2026-05-06 17:39 33.95309 -118.39155 337 ft 142 kts 263°
2026-05-06 17:40 33.95196 -118.40323 153 ft 138 kts 263°
2026-05-06 17:40 33.95096 -118.41331 123 ft 98 kts 262°
2026-05-06 17:40 33.95004 -118.41811 123 ft 31 kts 239°
2026-05-06 17:40 33.94925 -118.41946 124 ft 0 kts 234°
2026-05-06 17:42 33.94925 -118.41947 124 ft 1 kts 234°
2026-05-06 17:42 33.94900 -118.41990 123 ft 13 kts 234°
2026-05-06 17:42 33.94825 -118.42106 123 ft 20 kts 232°
2026-05-06 17:42 33.94743 -118.42232 125 ft 17 kts 223°
2026-05-06 17:43 33.94689 -118.42181 121 ft 14 kts 82°
2026-05-06 17:43 33.94701 -118.42057 125 ft 18 kts 83°
2026-05-06 17:43 33.94720 -118.41875 123 ft 24 kts 82°
2026-05-06 17:43 33.94666 -118.41816 121 ft 14 kts 169°
2026-05-06 17:44 33.94654 -118.41701 125 ft 19 kts 81°
2026-05-06 17:44 33.94672 -118.41527 125 ft 21 kts 84°
2026-05-06 17:44 33.94687 -118.41354 125 ft 18 kts 83°
2026-05-06 17:44 33.94702 -118.41266 125 ft 9 kts 81°
2026-05-06 17:45 33.94725 -118.41166 124 ft 18 kts 75°
2026-05-06 17:45 33.94741 -118.41001 125 ft 20 kts 84°
2026-05-06 17:45 33.94758 -118.40836 125 ft 20 kts 83°
2026-05-06 17:45 33.94773 -118.40688 125 ft 15 kts 82°
2026-05-06 17:46 33.94758 -118.40599 124 ft 11 kts 172°
2026-05-06 17:46 33.94680 -118.40594 122 ft 11 kts 175°
2026-05-06 17:46 33.94611 -118.40582 123 ft 8 kts 172°
2026-05-06 17:46 33.94592 -118.40536 122 ft 8 kts 88°
2026-05-06 17:47 33.94585 -118.40489 122 ft 3 kts 103°
2026-05-06 17:47 33.94582 -118.40475 122 ft 1 kts 103°